Weather History for Beaver Island, MI

Change the Weather History Date:

Monday, February 25, 2013

  Actual Average Record
Temperature  
Mean Temperature 30 °F -  
Max Temperature 33 °F 28 °F 48 °F (1957)
Min Temperature 26 °F 12 °F -10 °F (1963)
Degree Days  
Heating Degree Days 36    
Moisture  
Dew Point 27 °F    
Average Humidity 85    
Maximum Humidity 93    
Minimum Humidity 75    
Precipitation  
Precipitation 0.00 in - - ()
Sea Level Pressure  
Sea Level Pressure 30.14 in    
Wind  
Wind Speed 2 mph (SSW)    
Max Wind Speed 9 mph    
Max Gust Speed -    
Visibility 10 miles    
Events      
Averages and records for this station are not official NWS values.
T = Trace of Precipitation, MM = Missing Value Source: NWS Daily Summary

Daily Weather History Graph

Daily Weather History Graph

Search for Another Location

Airport:

Trip Planner

Search our weather history database for the weather conditions in past years. The results will help you decide how hot, cold, wet, or windy it might be!

Date:

Astronomy

Feb. 25, 2013 Rise Set
Actual Time 7:27 AM EST 6:23 PM EST
Civil Twilight 6:57 AM EST 6:53 PM EST
Nautical Twilight 6:23 AM EST 7:28 PM EST
Astronomical Twilight 5:48 AM EST 8:02 PM EST
Moon 6:39 PM EST (2/25) 6:55 AM EST (2/25)
Length of Visible Light 11h 56m
Length of Day
10h 56m
Full, 100% of the Moon is Illuminated
Feb 25
Full
Feb 25
Full
Mar 4
Last Quarter
Mar 11
New
Mar 19
First Quarter

Hourly Weather History & Observations

Time (EST) Temp. Windchill Dew Point Humidity Pressure Visibility Wind Dir Wind Speed Gust Speed Precip Events Conditions
12:06 AM 28.4 °F - 24.8 °F 86% 30.12 in 10.0 mi Calm Calm - N/A   Overcast
12:19 AM 28.4 °F - 23.0 °F 80% 30.12 in 10.0 mi Calm Calm - N/A   Overcast
12:41 AM 28.4 °F - 24.8 °F 86% 30.12 in 10.0 mi Calm Calm - N/A   Overcast
12:59 AM 28.4 °F - 24.8 °F 86% - 10.0 mi Calm Calm - N/A   Overcast
1:21 AM - - - N/A% - - Calm Calm - N/A   Unknown
1:37 AM 28.4 °F - 24.8 °F 86% - 10.0 mi Calm Calm - N/A   Overcast
1:57 AM 28.4 °F - 24.8 °F 86% - 10.0 mi Calm Calm - N/A   Overcast
2:22 AM - - - N/A% - 10.0 mi Calm Calm - N/A   Overcast
2:38 AM 28.4 °F - 24.8 °F 86% 30.14 in 10.0 mi Calm Calm - N/A   Overcast
2:57 AM 28.4 °F - 24.8 °F 86% - 10.0 mi Calm Calm - N/A   Overcast
3:20 AM 28.4 °F - - N/A% - 10.0 mi Calm Calm - N/A   Overcast
3:39 AM 28.4 °F - 24.8 °F 86% 30.14 in 10.0 mi Calm Calm - N/A   Overcast
3:59 AM 28.4 °F - 24.8 °F 86% 30.14 in 10.0 mi Calm Calm - N/A   Overcast
4:20 AM - - - N/A% - 10.0 mi Calm Calm - N/A   Overcast
4:38 AM 26.6 °F - 24.8 °F 93% 30.14 in 10.0 mi Calm Calm - N/A   Overcast
4:58 AM 26.6 °F - 24.8 °F 93% 30.13 in 10.0 mi Calm Calm - N/A   Overcast
5:17 AM 26.6 °F - 24.8 °F 93% - 10.0 mi Calm Calm - N/A   Overcast
5:40 AM 26.6 °F - - N/A% - 10.0 mi Calm Calm - N/A   Overcast
5:58 AM 28.4 °F - 24.8 °F 86% 30.15 in 10.0 mi Calm Calm - N/A   Overcast
6:18 AM 26.6 °F - 24.8 °F 93% 30.14 in 10.0 mi Calm Calm - N/A   Overcast
6:37 AM - - - N/A% - 10.0 mi ESE 3.5 mph - N/A   Overcast
6:57 AM - - - N/A% - 10.0 mi ESE 4.6 mph - N/A   Overcast
7:18 AM 28.4 °F - 26.6 °F 93% 30.14 in 10.0 mi Calm Calm - N/A   Overcast
7:37 AM - - - N/A% - 10.0 mi Calm Calm - N/A   Mostly Cloudy
7:57 AM 28.4 °F - 26.6 °F 93% 30.15 in 10.0 mi Calm Calm - N/A   Overcast
8:17 AM - - - N/A% - 10.0 mi Calm Calm - N/A   Scattered Clouds
8:38 AM 28.4 °F - 26.6 °F 93% 30.15 in 10.0 mi Calm Calm - N/A   Overcast
9:03 AM - - - N/A% - - North - - N/A   Unknown
9:18 AM 30.2 °F 25.4 °F 28.4 °F 93% 30.16 in 10.0 mi SE 4.6 mph - N/A   Overcast
9:41 AM 30.2 °F 25.4 °F - N/A% - 10.0 mi SE 4.6 mph - N/A   Overcast
9:57 AM - - - N/A% - 10.0 mi ESE 3.5 mph - N/A   Overcast
10:18 AM - - - N/A% - 0.9 mi North - - N/A   Unknown
10:37 AM - - - N/A% - 10.0 mi Calm Calm - N/A   Overcast
11:05 AM 32.0 °F 28.7 °F 28.4 °F 87% - 10.0 mi South 3.5 mph - N/A   Overcast
11:23 AM 32.0 °F - 28.4 °F 87% 30.16 in 10.0 mi Calm Calm - N/A   Overcast
11:38 AM 32.0 °F - 28.4 °F 87% 30.15 in 10.0 mi Calm Calm - N/A   Overcast
12:01 PM 32.0 °F 26.4 °F 28.4 °F 87% 30.15 in 10.0 mi SSW 5.8 mph - N/A   Overcast
12:23 PM 33.8 °F 28.6 °F 28.4 °F 81% 30.15 in 10.0 mi South 5.8 mph - N/A   Overcast
12:40 PM 33.8 °F 27.7 °F 26.6 °F 75% 30.15 in 10.0 mi SSW 6.9 mph - N/A   Overcast
12:58 PM 33.8 °F 27.0 °F 28.4 °F 81% 30.15 in 10.0 mi SW 8.1 mph - N/A   Overcast
1:17 PM 33.8 °F 26.4 °F 26.6 °F 75% 30.14 in 10.0 mi SW 9.2 mph - N/A   Overcast
1:37 PM 33.8 °F 26.4 °F 26.6 °F 75% 30.14 in 10.0 mi SW 9.2 mph - N/A   Overcast
1:58 PM 33.8 °F 27.7 °F 26.6 °F 75% 30.14 in 10.0 mi SSW 6.9 mph - N/A   Overcast
2:18 PM 33.8 °F 27.0 °F 26.6 °F 75% 30.14 in 10.0 mi SW 8.1 mph - N/A   Mostly Cloudy
2:43 PM - - - N/A% - 10.0 mi SSW 6.9 mph - N/A   Unknown
2:57 PM 33.8 °F 27.7 °F 28.4 °F 81% 30.13 in 10.0 mi SW 6.9 mph - N/A   Overcast
3:17 PM 33.8 °F 27.7 °F 28.4 °F 81% 30.13 in 10.0 mi SSW 6.9 mph - N/A   Overcast
3:38 PM 33.8 °F 26.4 °F 28.4 °F 81% 30.13 in 10.0 mi SSW 9.2 mph - N/A   Overcast
3:57 PM 33.8 °F 26.4 °F 28.4 °F 81% 30.13 in 10.0 mi SSW 9.2 mph - N/A   Overcast
4:17 PM 33.8 °F 27.7 °F 28.4 °F 81% 30.13 in 10.0 mi SSW 6.9 mph - N/A   Overcast
4:37 PM 33.8 °F 27.7 °F 26.6 °F 75% 30.13 in 10.0 mi SSW 6.9 mph - N/A   Overcast
4:57 PM 33.8 °F 29.6 °F 28.4 °F 81% 30.13 in 10.0 mi SW 4.6 mph - N/A   Overcast
5:38 PM 33.8 °F 29.6 °F 28.4 °F 81% 30.13 in 10.0 mi SSW 4.6 mph - N/A   Overcast
5:58 PM 33.8 °F 28.6 °F 28.4 °F 81% 30.13 in 10.0 mi SSW 5.8 mph - N/A   Overcast
10:48 PM - - - N/A% - - North - - N/A   Unknown
10:58 PM 30.2 °F - 28.4 °F 93% 30.12 in 10.0 mi Calm Calm - N/A   Overcast
11:18 PM 30.2 °F - 28.4 °F 93% 30.12 in 10.0 mi Calm Calm - N/A   Overcast
11:59 PM 30.2 °F - 28.4 °F 93% - 10.0 mi Calm Calm - N/A   Overcast